contact: severine.martini@mio.osupytheas.fr, dominique.lefevre@mio.osupytheas.fr
Project:EMSO Ligure-ouest http://www.emso-fr.org/EMSO-France
Sensor Optode, line 4330 Serial 272 
DOI : "https://doi.org/10.17882/97948" 
Title:EMSO Ligure Ouest : Data BathyDock capteur Optode - deploiement "2023-04-28"
Datetime,Profondeur,Latitude,Longitude,optode_type,serial,O2_concentration,O2_saturation,Temperature,Calibrated_Phase,Temp_Compensated_Phase,phase_blue_light,phase_red_light,Amplitude_blue_light,Amplitude_red_light,thermistor_bridge
time,m,degree_north,degree_east,1,1,umol.l-1,%,degree_C,degree,degree,degree,degree,mV,mV,mV
2023-09-21T00:00:08,2420,42.8014,5.9826,4330,272,187.161,57.316,13.305,35.997,36.577,41.165,4.588,295.0,541.9,291.4
2023-09-21T00:03:07,2420,42.8014,5.9826,4330,272,186.912,57.242,13.307,36.012,36.592,41.182,4.590,295.1,541.9,291.3
2023-09-21T00:06:07,2420,42.8014,5.9826,4330,272,187.039,57.277,13.304,36.005,36.585,41.180,4.594,295.1,541.9,291.4
2023-09-21T00:09:07,2420,42.8014,5.9826,4330,272,187.124,57.301,13.302,36.000,36.581,41.171,4.591,295.0,541.9,291.5
2023-09-21T00:12:07,2420,42.8014,5.9826,4330,272,187.029,57.274,13.304,36.006,36.586,41.178,4.592,295.1,541.9,291.4
2023-09-21T00:15:07,2420,42.8014,5.9826,4330,272,187.158,57.312,13.302,35.998,36.578,41.172,4.594,295.1,541.9,291.5
2023-09-21T00:18:07,2420,42.8014,5.9826,4330,272,187.142,57.308,13.303,35.999,36.579,41.172,4.593,295.0,541.9,291.4
2023-09-21T00:21:07,2420,42.8014,5.9826,4330,272,187.252,57.342,13.304,35.991,36.572,41.162,4.591,295.1,541.9,291.4
2023-09-21T00:24:07,2420,42.8014,5.9826,4330,272,187.163,57.316,13.304,35.997,36.577,41.170,4.593,295.0,541.9,291.4
2023-09-21T00:27:07,2420,42.8014,5.9826,4330,272,186.913,57.237,13.303,36.014,36.594,41.185,4.591,295.1,541.9,291.5
2023-09-21T00:30:08,2420,42.8014,5.9826,4330,272,186.793,57.203,13.305,36.021,36.601,41.189,4.588,295.1,541.9,291.4
2023-09-21T00:33:07,2420,42.8014,5.9826,4330,272,187.226,57.334,13.304,35.992,36.573,41.163,4.591,295.1,542.0,291.4
2023-09-21T00:36:07,2420,42.8014,5.9826,4330,272,187.111,57.298,13.303,36.001,36.581,41.167,4.586,295.1,541.9,291.4
2023-09-21T00:39:07,2420,42.8014,5.9826,4330,272,186.934,57.244,13.303,36.012,36.593,41.184,4.591,295.1,541.9,291.4
2023-09-21T00:42:07,2420,42.8014,5.9826,4330,272,187.243,57.341,13.305,35.991,36.572,41.164,4.593,295.1,541.9,291.4
2023-09-21T00:45:07,2420,42.8014,5.9826,4330,272,187.142,57.310,13.305,35.998,36.578,41.169,4.590,295.1,541.9,291.4
2023-09-21T00:48:07,2420,42.8014,5.9826,4330,272,187.249,57.345,13.306,35.990,36.571,41.166,4.595,295.1,541.9,291.3
2023-09-21T00:51:07,2420,42.8014,5.9826,4330,272,187.004,57.272,13.309,36.005,36.585,41.177,4.592,295.1,541.8,291.3
2023-09-21T00:54:07,2420,42.8014,5.9826,4330,272,186.799,57.210,13.309,36.018,36.599,41.188,4.589,295.0,541.8,291.3
2023-09-21T00:57:08,2420,42.8014,5.9826,4330,272,187.250,57.349,13.310,35.988,36.569,41.161,4.592,295.0,541.9,291.2
2023-09-21T01:00:08,2420,42.8014,5.9826,4330,272,187.114,57.312,13.313,35.996,36.576,41.167,4.591,295.1,541.9,291.1
2023-09-21T01:03:07,2420,42.8014,5.9826,4330,272,186.978,57.268,13.311,36.006,36.586,41.178,4.592,295.1,541.9,291.2
2023-09-21T01:06:07,2420,42.8014,5.9826,4330,272,187.266,57.354,13.310,35.987,36.568,41.163,4.595,295.1,541.9,291.2
2023-09-21T01:09:07,2420,42.8014,5.9826,4330,272,187.367,57.379,13.305,35.983,36.564,41.158,4.594,295.0,541.9,291.4
2023-09-21T01:12:07,2420,42.8014,5.9826,4330,272,187.016,57.274,13.307,36.005,36.585,41.179,4.594,295.0,541.9,291.3
2023-09-21T01:15:07,2420,42.8014,5.9826,4330,272,187.229,57.337,13.305,35.992,36.573,41.163,4.590,295.1,541.9,291.4
2023-09-21T01:18:07,2420,42.8014,5.9826,4330,272,186.920,57.243,13.305,36.012,36.592,41.181,4.589,295.1,541.8,291.4
2023-09-21T01:21:08,2420,42.8014,5.9826,4330,272,186.974,57.263,13.308,36.007,36.587,41.178,4.591,295.1,541.9,291.3
2023-09-21T01:24:08,2420,42.8014,5.9826,4330,272,187.098,57.315,13.319,35.994,36.574,41.166,4.591,295.0,541.9,290.9
2023-09-21T01:27:08,2420,42.8014,5.9826,4330,272,187.255,57.351,13.310,35.988,36.569,41.160,4.591,295.1,541.8,291.2
2023-09-21T01:30:08,2420,42.8014,5.9826,4330,272,187.049,57.299,13.319,35.997,36.578,41.166,4.588,295.1,541.9,290.9
2023-09-21T01:33:07,2420,42.8014,5.9826,4330,272,187.184,57.328,13.309,35.993,36.573,41.162,4.589,295.1,541.9,291.3
2023-09-21T01:36:07,2420,42.8014,5.9826,4330,272,186.953,57.266,13.316,36.005,36.585,41.174,4.589,295.1,541.9,291.0
2023-09-21T01:39:07,2420,42.8014,5.9826,4330,272,187.223,57.339,13.309,35.991,36.571,41.160,4.589,295.1,541.8,291.3
2023-09-21T01:42:07,2420,42.8014,5.9826,4330,272,186.850,57.234,13.315,36.012,36.592,41.181,4.588,295.1,541.9,291.1
2023-09-21T01:45:08,2420,42.8014,5.9826,4330,272,187.091,57.301,13.310,35.998,36.579,41.167,4.589,295.1,541.9,291.2
2023-09-21T01:48:08,2420,42.8014,5.9826,4330,272,186.989,57.271,13.311,36.005,36.586,41.175,4.590,295.1,541.8,291.2
2023-09-21T01:51:08,2420,42.8014,5.9826,4330,272,187.083,57.295,13.308,36.000,36.581,41.173,4.592,295.1,541.9,291.3
2023-09-21T01:54:08,2420,42.8014,5.9826,4330,272,187.003,57.274,13.310,36.005,36.585,41.173,4.588,295.0,541.9,291.2
2023-09-21T01:57:08,2420,42.8014,5.9826,4330,272,187.017,57.278,13.310,36.003,36.584,41.183,4.599,295.1,541.9,291.2
2023-09-21T02:00:08,2420,42.8014,5.9826,4330,272,187.063,57.303,13.319,35.996,36.577,41.168,4.591,295.0,541.9,290.9
2023-09-21T02:03:07,2420,42.8014,5.9826,4330,272,186.787,57.220,13.319,36.014,36.594,41.184,4.589,295.1,541.9,290.9
2023-09-21T02:06:07,2420,42.8014,5.9826,4330,272,186.684,57.182,13.315,36.023,36.603,41.189,4.587,295.1,541.9,291.1
2023-09-21T02:09:07,2420,42.8014,5.9826,4330,272,186.657,57.176,13.317,36.024,36.604,41.190,4.587,295.1,541.9,291.0
2023-09-21T02:12:07,2420,42.8014,5.9826,4330,272,186.744,57.211,13.323,36.015,36.595,41.183,4.588,295.2,541.8,290.8
2023-09-21T02:15:07,2420,42.8014,5.9826,4330,272,186.666,57.192,13.326,36.019,36.599,41.192,4.593,295.1,541.9,290.7
2023-09-21T02:18:07,2420,42.8014,5.9826,4330,272,186.795,57.228,13.324,36.011,36.591,41.181,4.589,295.1,541.8,290.8
2023-09-21T02:21:07,2420,42.8014,5.9826,4330,272,186.762,57.209,13.317,36.017,36.597,41.189,4.592,295.1,541.8,291.0
2023-09-21T02:24:08,2420,42.8014,5.9826,4330,272,186.989,57.285,13.322,36.000,36.580,41.173,4.593,295.2,541.8,290.8
2023-09-21T02:27:08,2420,42.8014,5.9826,4330,272,186.935,57.272,13.325,36.001,36.582,41.171,4.589,295.1,541.9,290.7
2023-09-21T02:30:08,2420,42.8014,5.9826,4330,272,186.756,57.209,13.319,36.016,36.597,41.186,4.590,295.2,541.9,290.9
2023-09-21T02:33:07,2420,42.8014,5.9826,4330,272,187.073,57.307,13.319,35.995,36.576,41.168,4.593,295.1,541.8,290.9
2023-09-21T02:36:07,2420,42.8014,5.9826,4330,272,186.785,57.207,13.310,36.018,36.598,41.182,4.584,295.2,541.8,291.2
2023-09-21T02:39:07,2420,42.8014,5.9826,4330,272,186.839,57.223,13.309,36.016,36.596,41.188,4.592,295.2,541.8,291.3
2023-09-21T02:42:08,2420,42.8014,5.9826,4330,272,186.844,57.229,13.313,36.014,36.594,41.184,4.590,295.1,541.8,291.1
2023-09-21T02:45:08,2420,42.8014,5.9826,4330,272,186.922,57.254,13.314,36.008,36.588,41.181,4.592,295.2,541.8,291.1
2023-09-21T02:48:08,2420,42.8014,5.9826,4330,272,186.863,57.257,13.330,36.004,36.584,41.178,4.594,295.1,541.9,290.6
2023-09-21T02:51:08,2420,42.8014,5.9826,4330,272,186.852,57.238,13.318,36.010,36.591,41.187,4.596,295.1,541.8,291.0
2023-09-21T02:54:08,2420,42.8014,5.9826,4330,272,186.769,57.223,13.327,36.012,36.592,41.181,4.589,295.1,541.8,290.7
2023-09-21T02:57:08,2420,42.8014,5.9826,4330,272,186.800,57.226,13.321,36.012,36.593,41.180,4.587,295.1,541.8,290.9
2023-09-21T03:00:08,2420,42.8014,5.9826,4330,272,186.810,57.230,13.322,36.011,36.591,41.179,4.587,295.1,541.7,290.8
2023-09-21T03:03:07,2420,42.8014,5.9826,4330,272,186.861,57.241,13.318,36.010,36.590,41.185,4.594,295.1,541.8,291.0
2023-09-21T03:06:07,2420,42.8014,5.9826,4330,272,186.635,57.166,13.314,36.026,36.606,41.193,4.587,295.3,541.9,291.1
2023-09-21T03:09:07,2420,42.8014,5.9826,4330,272,186.832,57.227,13.314,36.013,36.594,41.184,4.590,295.3,541.8,291.1
2023-09-21T03:12:07,2420,42.8014,5.9826,4330,272,186.774,57.211,13.316,36.017,36.597,41.188,4.591,295.1,541.8,291.0
2023-09-21T03:15:07,2420,42.8014,5.9826,4330,272,186.931,57.257,13.314,36.007,36.588,41.184,4.596,295.2,541.8,291.1
2023-09-21T03:18:07,2420,42.8014,5.9826,4330,272,186.990,57.276,13.314,36.003,36.583,41.175,4.592,295.2,541.8,291.1
2023-09-21T03:21:07,2420,42.8014,5.9826,4330,272,186.693,57.183,13.313,36.023,36.604,41.193,4.589,295.3,541.9,291.1
2023-09-21T03:24:07,2420,42.8014,5.9826,4330,272,186.879,57.243,13.316,36.010,36.590,41.185,4.595,295.2,541.8,291.0
2023-09-21T03:27:07,2420,42.8014,5.9826,4330,272,186.591,57.165,13.324,36.025,36.605,41.195,4.590,295.2,541.9,290.8
2023-09-21T03:30:07,2420,42.8014,5.9826,4330,272,186.604,57.167,13.322,36.024,36.605,41.192,4.587,295.2,541.8,290.8
2023-09-21T03:33:07,2420,42.8014,5.9826,4330,272,186.625,57.180,13.327,36.021,36.601,41.190,4.589,295.1,541.8,290.7
2023-09-21T03:36:07,2420,42.8014,5.9826,4330,272,186.811,57.220,13.313,36.016,36.596,41.190,4.594,295.2,541.9,291.1
2023-09-21T03:39:07,2420,42.8014,5.9826,4330,272,186.653,57.182,13.322,36.022,36.602,41.193,4.591,295.2,541.8,290.8
2023-09-21T03:42:07,2420,42.8014,5.9826,4330,272,186.778,57.213,13.316,36.016,36.596,41.190,4.594,295.2,541.8,291.0
2023-09-21T03:45:07,2420,42.8014,5.9826,4330,272,186.846,57.241,13.322,36.009,36.590,41.180,4.591,295.2,541.8,290.8
2023-09-21T03:48:07,2420,42.8014,5.9826,4330,272,186.898,57.254,13.320,36.007,36.587,41.185,4.597,295.2,541.8,290.9
2023-09-21T03:51:07,2420,42.8014,5.9826,4330,272,186.820,57.229,13.319,36.012,36.592,41.181,4.589,295.1,541.8,290.9
2023-09-21T03:54:07,2420,42.8014,5.9826,4330,272,186.766,57.210,13.317,36.016,36.596,41.192,4.595,295.3,541.8,291.0
2023-09-21T03:57:07,2420,42.8014,5.9826,4330,272,186.779,57.212,13.315,36.016,36.597,41.190,4.594,295.2,541.9,291.1
2023-09-21T04:00:07,2420,42.8014,5.9826,4330,272,186.565,57.153,13.321,36.027,36.608,41.197,4.590,295.2,541.9,290.9
2023-09-21T04:03:07,2420,42.8014,5.9826,4330,272,187.011,57.274,13.308,36.005,36.585,41.177,4.592,295.2,541.9,291.3
2023-09-21T04:06:07,2420,42.8014,5.9826,4330,272,186.736,57.197,13.314,36.020,36.600,41.193,4.593,295.1,541.9,291.1
2023-09-21T04:09:07,2420,42.8014,5.9826,4330,272,186.917,57.250,13.312,36.009,36.589,41.176,4.587,295.2,541.9,291.2
2023-09-21T04:12:07,2420,42.8014,5.9826,4330,272,186.964,57.264,13.312,36.006,36.586,41.177,4.591,295.1,541.9,291.2
2023-09-21T04:15:07,2420,42.8014,5.9826,4330,272,186.743,57.199,13.314,36.020,36.600,41.190,4.590,295.1,541.9,291.1
2023-09-21T04:18:08,2420,42.8014,5.9826,4330,272,186.793,57.214,13.314,36.016,36.596,41.186,4.590,295.2,541.8,291.1
2023-09-21T04:21:08,2420,42.8014,5.9826,4330,272,186.665,57.192,13.327,36.019,36.599,41.184,4.586,295.2,541.8,290.7
2023-09-21T04:24:08,2420,42.8014,5.9826,4330,272,186.924,57.258,13.317,36.007,36.587,41.176,4.589,295.2,541.9,291.0
2023-09-21T04:27:08,2420,42.8014,5.9826,4330,272,186.780,57.213,13.316,36.016,36.596,41.184,4.588,295.1,541.9,291.0
2023-09-21T04:30:07,2420,42.8014,5.9826,4330,272,186.709,57.192,13.317,36.021,36.601,41.193,4.593,295.1,541.8,291.0
2023-09-21T04:33:07,2420,42.8014,5.9826,4330,272,186.545,57.140,13.316,36.032,36.612,41.201,4.589,295.2,541.9,291.0
2023-09-21T04:36:07,2420,42.8014,5.9826,4330,272,186.726,57.198,13.317,36.018,36.599,41.190,4.591,295.2,541.9,291.0
2023-09-21T04:39:07,2420,42.8014,5.9826,4330,272,186.900,57.248,13.315,36.009,36.589,41.184,4.595,295.3,541.9,291.1
2023-09-21T04:42:07,2420,42.8014,5.9826,4330,272,186.734,57.205,13.321,36.017,36.597,41.189,4.592,295.2,541.9,290.9
2023-09-21T04:45:07,2420,42.8014,5.9826,4330,272,186.847,57.235,13.317,36.011,36.591,41.182,4.591,295.2,541.9,291.0
2023-09-21T04:48:07,2420,42.8014,5.9826,4330,272,186.716,57.190,13.313,36.021,36.602,41.191,4.589,295.3,541.9,291.1
2023-09-21T04:51:07,2420,42.8014,5.9826,4330,272,186.918,57.254,13.315,36.008,36.588,41.179,4.590,295.2,541.9,291.1
2023-09-21T04:54:07,2420,42.8014,5.9826,4330,272,186.658,57.177,13.317,36.024,36.604,41.195,4.591,295.2,541.8,291.0
2023-09-21T04:57:08,2420,42.8014,5.9826,4330,272,186.658,57.178,13.318,36.023,36.604,41.193,4.589,295.2,541.9,291.0
2023-09-21T05:00:08,2420,42.8014,5.9826,4330,272,186.804,57.226,13.320,36.012,36.593,41.187,4.595,295.2,541.8,290.9
2023-09-21T05:03:07,2420,42.8014,5.9826,4330,272,186.607,57.164,13.319,36.026,36.606,41.195,4.588,295.3,541.8,290.9
2023-09-21T05:06:07,2420,42.8014,5.9826,4330,272,186.804,57.222,13.318,36.014,36.594,41.185,4.591,295.2,541.8,291.0
2023-09-21T05:09:08,2420,42.8014,5.9826,4330,272,186.674,57.178,13.314,36.024,36.604,41.195,4.591,295.2,541.8,291.1
2023-09-21T05:12:08,2420,42.8014,5.9826,4330,272,186.599,57.152,13.312,36.030,36.610,41.200,4.590,295.2,541.9,291.2
2023-09-21T05:15:08,2420,42.8014,5.9826,4330,272,186.718,57.191,13.313,36.021,36.602,41.191,4.590,295.2,541.9,291.1
2023-09-21T05:18:08,2420,42.8014,5.9826,4330,272,186.691,57.188,13.317,36.021,36.601,41.192,4.591,295.2,541.9,291.0
2023-09-21T05:21:08,2420,42.8014,5.9826,4330,272,186.447,57.105,13.311,36.040,36.620,41.202,4.583,295.3,541.9,291.2
2023-09-21T05:24:08,2420,42.8014,5.9826,4330,272,186.877,57.240,13.313,36.011,36.591,41.185,4.594,295.2,541.9,291.1
2023-09-21T05:27:07,2420,42.8014,5.9826,4330,272,186.437,57.103,13.312,36.040,36.620,41.210,4.590,295.3,541.9,291.2
2023-09-21T05:30:07,2420,42.8014,5.9826,4330,272,186.747,57.196,13.310,36.021,36.601,41.188,4.587,295.2,541.9,291.2
2023-09-21T05:33:08,2420,42.8014,5.9826,4330,272,186.843,57.226,13.311,36.015,36.595,41.187,4.592,295.3,541.9,291.2
2023-09-21T05:36:07,2420,42.8014,5.9826,4330,272,186.835,57.222,13.310,36.015,36.596,41.186,4.591,295.2,542.0,291.2
2023-09-21T05:39:07,2420,42.8014,5.9826,4330,272,186.919,57.247,13.309,36.010,36.591,41.183,4.592,295.2,542.0,291.3
2023-09-21T05:42:07,2420,42.8014,5.9826,4330,272,186.716,57.191,13.314,36.021,36.601,41.195,4.594,295.3,541.9,291.1
2023-09-21T05:45:07,2420,42.8014,5.9826,4330,272,186.851,57.227,13.310,36.014,36.594,41.189,4.595,295.2,542.0,291.2
2023-09-21T05:48:07,2420,42.8014,5.9826,4330,272,186.726,57.188,13.309,36.023,36.603,41.195,4.592,295.3,541.9,291.3
2023-09-21T05:51:07,2420,42.8014,5.9826,4330,272,186.740,57.194,13.310,36.021,36.601,41.190,4.588,295.2,542.0,291.2
2023-09-21T05:54:07,2420,42.8014,5.9826,4330,272,186.527,57.129,13.311,36.035,36.616,41.204,4.589,295.3,541.9,291.2
2023-09-21T05:57:07,2420,42.8014,5.9826,4330,272,186.867,57.233,13.311,36.013,36.594,41.183,4.589,295.2,541.9,291.2
2023-09-21T06:00:07,2420,42.8014,5.9826,4330,272,186.762,57.201,13.311,36.020,36.600,41.192,4.591,295.2,541.9,291.2
2023-09-21T06:03:07,2420,42.8014,5.9826,4330,272,186.778,57.206,13.311,36.019,36.599,41.191,4.592,295.3,542.0,291.2
2023-09-21T06:06:07,2420,42.8014,5.9826,4330,272,186.740,57.196,13.312,36.020,36.600,41.191,4.590,295.3,542.0,291.2
2023-09-21T06:09:07,2420,42.8014,5.9826,4330,272,186.589,57.146,13.309,36.032,36.612,41.205,4.593,295.3,542.0,291.3
2023-09-21T06:12:07,2420,42.8014,5.9826,4330,272,186.789,57.212,13.313,36.017,36.597,41.189,4.592,295.2,541.9,291.1
2023-09-21T06:15:07,2420,42.8014,5.9826,4330,272,186.601,57.150,13.309,36.031,36.611,41.200,4.589,295.3,541.9,291.2
2023-09-21T06:18:07,2420,42.8014,5.9826,4330,272,186.629,57.158,13.309,36.030,36.610,41.196,4.587,295.3,541.9,291.2
2023-09-21T06:21:07,2420,42.8014,5.9826,4330,272,186.635,57.160,13.309,36.029,36.609,41.199,4.590,295.2,541.9,291.3
2023-09-21T06:24:07,2420,42.8014,5.9826,4330,272,186.918,57.245,13.308,36.011,36.591,41.184,4.593,295.2,542.0,291.3
2023-09-21T06:27:07,2420,42.8014,5.9826,4330,272,186.664,57.167,13.308,36.028,36.608,41.201,4.593,295.2,542.0,291.3
2023-09-21T06:30:07,2420,42.8014,5.9826,4330,272,186.991,57.270,13.309,36.006,36.586,41.177,4.591,295.2,541.9,291.2
2023-09-21T06:33:07,2420,42.8014,5.9826,4330,272,186.762,57.196,13.307,36.021,36.602,41.191,4.590,295.2,541.9,291.3
2023-09-21T06:36:07,2420,42.8014,5.9826,4330,272,186.766,57.198,13.308,36.021,36.601,41.191,4.590,295.2,542.0,291.3
2023-09-21T06:39:07,2420,42.8014,5.9826,4330,272,186.726,57.187,13.308,36.023,36.603,41.195,4.591,295.1,541.9,291.3
2023-09-21T06:42:07,2420,42.8014,5.9826,4330,272,186.893,57.240,13.310,36.012,36.592,41.184,4.592,295.2,541.9,291.2
2023-09-21T06:45:07,2420,42.8014,5.9826,4330,272,186.983,57.265,13.308,36.007,36.588,41.181,4.593,295.2,542.0,291.3
2023-09-21T06:48:08,2420,42.8014,5.9826,4330,272,186.924,57.245,13.306,36.011,36.592,41.189,4.598,295.2,542.0,291.3
2023-09-21T06:51:08,2420,42.8014,5.9826,4330,272,186.891,57.235,13.306,36.014,36.594,41.186,4.592,295.2,542.0,291.3
2023-09-21T06:54:08,2420,42.8014,5.9826,4330,272,186.764,57.198,13.308,36.021,36.602,41.191,4.590,295.2,542.0,291.3
2023-09-21T06:57:08,2420,42.8014,5.9826,4330,272,186.891,57.242,13.312,36.011,36.591,41.179,4.588,295.2,542.0,291.2
2023-09-21T07:00:08,2420,42.8014,5.9826,4330,272,186.945,57.253,13.308,36.010,36.590,41.180,4.590,295.2,541.9,291.3
2023-09-21T07:03:07,2420,42.8014,5.9826,4330,272,186.766,57.198,13.307,36.022,36.602,41.192,4.590,295.2,542.0,291.3
2023-09-21T07:06:07,2420,42.8014,5.9826,4330,272,187.116,57.304,13.307,35.999,36.579,41.173,4.593,295.1,542.1,291.3
2023-09-21T07:09:07,2420,42.8014,5.9826,4330,272,187.006,57.270,13.306,36.006,36.587,41.173,4.586,295.1,541.9,291.4
2023-09-21T07:12:07,2420,42.8014,5.9826,4330,272,186.790,57.203,13.306,36.020,36.600,41.192,4.592,295.2,542.0,291.4
2023-09-21T07:15:07,2420,42.8014,5.9826,4330,272,186.791,57.205,13.307,36.020,36.600,41.192,4.592,295.2,541.9,291.3
2023-09-21T07:18:07,2420,42.8014,5.9826,4330,272,186.877,57.231,13.307,36.014,36.595,41.184,4.589,295.2,542.0,291.3
2023-09-21T07:21:07,2420,42.8014,5.9826,4330,272,186.943,57.251,13.307,36.010,36.590,41.183,4.593,295.3,542.0,291.3
2023-09-21T07:24:07,2420,42.8014,5.9826,4330,272,186.765,57.197,13.307,36.021,36.602,41.194,4.592,295.3,542.0,291.3
2023-09-21T07:27:07,2420,42.8014,5.9826,4330,272,186.669,57.167,13.306,36.028,36.608,41.197,4.589,295.2,542.0,291.3
2023-09-21T07:30:07,2420,42.8014,5.9826,4330,272,186.876,57.231,13.307,36.014,36.594,41.183,4.589,295.3,542.0,291.3
2023-09-21T07:33:07,2420,42.8014,5.9826,4330,272,186.813,57.210,13.306,36.019,36.599,41.189,4.589,295.2,542.0,291.4
2023-09-21T07:36:07,2420,42.8014,5.9826,4330,272,186.729,57.184,13.305,36.025,36.605,41.195,4.590,295.3,542.0,291.4
2023-09-21T07:39:07,2420,42.8014,5.9826,4330,272,186.744,57.187,13.304,36.024,36.604,41.196,4.592,295.3,541.9,291.4
2023-09-21T07:42:07,2420,42.8014,5.9826,4330,272,186.548,57.127,13.304,36.037,36.617,41.203,4.586,295.2,542.0,291.4
2023-09-21T07:45:07,2420,42.8014,5.9826,4330,272,186.747,57.187,13.303,36.024,36.605,41.193,4.588,295.2,542.0,291.4
2023-09-21T07:48:07,2420,42.8014,5.9826,4330,272,187.037,57.276,13.304,36.005,36.586,41.179,4.594,295.2,542.0,291.4
2023-09-21T07:51:07,2420,42.8014,5.9826,4330,272,186.867,57.224,13.304,36.017,36.597,41.185,4.588,295.3,542.0,291.4
2023-09-21T07:54:07,2420,42.8014,5.9826,4330,272,186.738,57.187,13.305,36.024,36.605,41.194,4.590,295.3,542.0,291.4
2023-09-21T07:57:07,2420,42.8014,5.9826,4330,272,186.843,57.216,13.303,36.019,36.599,41.189,4.590,295.3,541.9,291.5
2023-09-21T08:00:07,2420,42.8014,5.9826,4330,272,186.994,57.263,13.304,36.008,36.588,41.178,4.589,295.2,541.9,291.4
2023-09-21T08:03:07,2420,42.8014,5.9826,4330,272,186.875,57.228,13.304,36.015,36.596,41.192,4.596,295.2,542.0,291.4
2023-09-21T08:06:07,2420,42.8014,5.9826,4330,272,186.798,57.204,13.305,36.020,36.600,41.187,4.587,295.2,542.0,291.4
2023-09-21T08:09:07,2420,42.8014,5.9826,4330,272,187.146,57.310,13.304,35.998,36.578,41.169,4.590,295.2,542.0,291.4
2023-09-21T08:12:07,2420,42.8014,5.9826,4330,272,186.925,57.244,13.305,36.012,36.593,41.183,4.591,295.2,542.0,291.4
2023-09-21T08:15:07,2420,42.8014,5.9826,4330,272,186.880,57.228,13.304,36.015,36.596,41.186,4.590,295.2,542.0,291.4
2023-09-21T08:18:07,2420,42.8014,5.9826,4330,272,186.742,57.184,13.302,36.025,36.605,41.194,4.589,295.3,542.0,291.5
2023-09-21T08:21:07,2420,42.8014,5.9826,4330,272,186.967,57.257,13.306,36.009,36.589,41.176,4.588,295.2,541.9,291.4
2023-09-21T08:24:07,2420,42.8014,5.9826,4330,272,186.834,57.213,13.302,36.019,36.599,41.189,4.590,295.2,542.0,291.5
2023-09-21T08:27:08,2420,42.8014,5.9826,4330,272,187.052,57.279,13.302,36.005,36.585,41.180,4.595,295.3,542.0,291.5
2023-09-21T08:30:08,2420,42.8014,5.9826,4330,272,186.855,57.221,13.304,36.016,36.597,41.185,4.589,295.3,542.0,291.4
2023-09-21T08:33:07,2420,42.8014,5.9826,4330,272,186.965,57.253,13.303,36.011,36.591,41.185,4.595,295.2,542.0,291.5
2023-09-21T08:36:07,2420,42.8014,5.9826,4330,272,186.608,57.148,13.306,36.032,36.613,41.203,4.591,295.2,542.0,291.4
2023-09-21T08:39:07,2420,42.8014,5.9826,4330,272,186.865,57.224,13.304,36.016,36.596,41.186,4.590,295.3,542.0,291.4
2023-09-21T08:42:07,2420,42.8014,5.9826,4330,272,186.607,57.144,13.304,36.033,36.613,41.201,4.588,295.2,542.0,291.4
2023-09-21T08:45:07,2420,42.8014,5.9826,4330,272,186.760,57.190,13.303,36.024,36.604,41.195,4.590,295.2,541.9,291.5
2023-09-21T08:48:07,2420,42.8014,5.9826,4330,272,186.800,57.204,13.304,36.021,36.601,41.191,4.590,295.3,542.0,291.4
2023-09-21T08:51:07,2420,42.8014,5.9826,4330,272,186.949,57.248,13.303,36.011,36.591,41.182,4.591,295.3,542.0,291.5
2023-09-21T08:54:07,2420,42.8014,5.9826,4330,272,186.871,57.224,13.303,36.016,36.597,41.188,4.592,295.1,542.0,291.5
2023-09-21T08:57:07,2420,42.8014,5.9826,4330,272,186.773,57.196,13.304,36.022,36.603,41.192,4.590,295.2,542.0,291.4
2023-09-21T09:00:07,2420,42.8014,5.9826,4330,272,186.687,57.171,13.305,36.028,36.608,41.196,4.589,295.3,542.0,291.4
2023-09-21T09:03:07,2420,42.8014,5.9826,4330,272,186.876,57.230,13.306,36.015,36.595,41.190,4.595,295.3,541.9,291.4
2023-09-21T09:06:07,2420,42.8014,5.9826,4330,272,186.852,57.219,13.303,36.017,36.598,41.190,4.593,295.2,541.9,291.5
2023-09-21T09:09:07,2420,42.8014,5.9826,4330,272,186.790,57.201,13.304,36.021,36.601,41.194,4.592,295.2,542.0,291.4
2023-09-21T09:12:07,2420,42.8014,5.9826,4330,272,186.730,57.182,13.304,36.025,36.606,41.195,4.590,295.2,541.9,291.4
2023-09-21T09:15:07,2420,42.8014,5.9826,4330,272,186.857,57.220,13.303,36.017,36.597,41.191,4.593,295.3,541.9,291.5
2023-09-21T09:18:07,2420,42.8014,5.9826,4330,272,186.747,57.187,13.303,36.024,36.604,41.193,4.589,295.2,542.0,291.4
2023-09-21T09:21:07,2420,42.8014,5.9826,4330,272,186.819,57.209,13.304,36.020,36.600,41.194,4.594,295.3,541.9,291.4
2023-09-21T09:24:08,2420,42.8014,5.9826,4330,272,187.015,57.270,13.304,36.006,36.587,41.181,4.594,295.2,542.0,291.4
2023-09-21T09:27:08,2420,42.8014,5.9826,4330,272,186.706,57.175,13.304,36.027,36.607,41.196,4.589,295.2,541.9,291.4
2023-09-21T09:30:08,2420,42.8014,5.9826,4330,272,186.870,57.223,13.302,36.017,36.597,41.187,4.590,295.2,541.9,291.5
2023-09-21T09:33:07,2420,42.8014,5.9826,4330,272,186.935,57.245,13.303,36.012,36.592,41.185,4.592,295.1,542.0,291.4
2023-09-21T09:36:07,2420,42.8014,5.9826,4330,272,186.669,57.162,13.302,36.030,36.610,41.198,4.588,295.2,542.0,291.5
2023-09-21T09:39:07,2420,42.8014,5.9826,4330,272,187.030,57.273,13.303,36.006,36.587,41.177,4.591,295.2,542.0,291.5
2023-09-21T09:42:07,2420,42.8014,5.9826,4330,272,186.868,57.228,13.307,36.015,36.595,41.185,4.590,295.2,542.0,291.3
2023-09-21T09:45:08,2420,42.8014,5.9826,4330,272,186.963,57.255,13.305,36.010,36.590,41.176,4.586,295.2,542.0,291.4
2023-09-21T09:48:08,2420,42.8014,5.9826,4330,272,186.742,57.186,13.303,36.025,36.605,41.197,4.592,295.2,542.0,291.4
2023-09-21T09:51:08,2420,42.8014,5.9826,4330,272,186.847,57.218,13.304,36.017,36.597,41.192,4.595,295.2,541.9,291.4
2023-09-21T09:54:08,2420,42.8014,5.9826,4330,272,187.013,57.267,13.302,36.007,36.587,41.178,4.591,295.2,541.9,291.5
2023-09-21T09:57:08,2420,42.8014,5.9826,4330,272,186.887,57.228,13.302,36.015,36.596,41.186,4.590,295.2,542.0,291.5
2023-09-21T10:00:08,2420,42.8014,5.9826,4330,272,186.883,57.226,13.302,36.016,36.597,41.191,4.595,295.3,542.1,291.5